ONEWEB-0058 (45161 NORAD) Tracking and Keplerian Element Data

This shows tracking and keplerian element data for the satellite.

Feedback or suggestion? Click here.




ElementValue
Catalog45161
NameONEWEB-0058
Epoch Orbit3910
Epoch Day298.25001157
Epoch Year2020
RAAN86.2688
Inclination87.9411
Eccentricity0.0021657
Argument of Perigee115.1486
Mean Anonmoly142.9841
Mean Motion13.33675828
Decay Rate1.4E-07
L11 45161U 20008AG 20298.25001157 .00000014 00000-0 00000+0 0 9993
L22 45161 87.9411 86.2688 0021657 115.1486 142.9841 13.33675828 39102

Live tracking and technical data element details for ONEWEB-0058 (NORAD 45161). ONEWEB-0058 can be tracked NOW for your location showing map with azimuth and elevation plus other details from your city location.

Track the satellite on the map from your city or location and see movement details for azimuth, elevation, latitude, longitude, range, height, and movement on the map or in text.







IsCatalogInMostPopularTable: catalog: 45161, numindb: 57
Update: records affected: 1



GetName: 45161 ONEWEB-0058

Hit Count: updated at: Sat, 24 Oct 2020 22:51:07 GMT